• în Republica Moldova
  • Lista ţărilor
  • Pe 7 zile
  • Temperatura apei
  • Hartă satelitară
  • Meteo pe hartă
  • Widget-uri
  • user-avatar
    Intrare

    Meteo pe oră la Luanda

    Astăzi, 25 Iulie, Marţi

    Timp Temperatura Precipitaţii Vânt Presiune Umiditate
    00:00 +21°C° 0 mm 3 m/s 758 mmHg 86%
    01:00 +21°C° 0 mm 3 m/s 758 mmHg 86%
    02:00 +21°C° 0,1 mm 3 m/s 758 mmHg 84%
    03:00 +22°C° 0,1 mm 3 m/s 757 mmHg 81%
    04:00 +22°C° 0,1 mm 3 m/s 757 mmHg 79%
    05:00 +22°C° 0,1 mm 3 m/s 757 mmHg 79%
    06:00 +23°C° 0,1 mm 2 m/s 757 mmHg 78%
    07:00 +23°C° 0,1 mm 2 m/s 757 mmHg 77%
    08:00 +24°C° 0 mm 2 m/s 758 mmHg 71%
    09:00 +26°C° 0 mm 2 m/s 758 mmHg 64%
    10:00 +27°C° 0 mm 2 m/s 758 mmHg 58%
    11:00 +28°C° 0 mm 3 m/s 757 mmHg 53%
    12:00 +30°C° 0 mm 3 m/s 756 mmHg 48%
    13:00 +32°C° 0 mm 4 m/s 756 mmHg 43%
    14:00 +30°C° 0 mm 5 m/s 755 mmHg 47%
    15:00 +29°C° 0 mm 5 m/s 755 mmHg 51%
    16:00 +28°C° 0 mm 6 m/s 754 mmHg 55%
    17:00 +27°C° 0 mm 5 m/s 754 mmHg 63%
    18:00 +25°C° 0 mm 5 m/s 755 mmHg 71%
    19:00 +22°C° 0 mm 5 m/s 755 mmHg 79%
    20:00 +21°C° 0 mm 5 m/s 756 mmHg 81%
    21:00 +21°C° 0 mm 4 m/s 757 mmHg 83%
    22:00 +21°C° 0 mm 4 m/s 757 mmHg 85%
    23:00 +21°C° 0 mm 4 m/s 757 mmHg 83%

    Mâine, 26 Iulie, Miercuri

    Timp Temperatura Precipitaţii Vânt Presiune Umiditate
    00:00 +21°C° 0 mm 4 m/s 757 mmHg 81%
    01:00 +21°C° 0 mm 3 m/s 757 mmHg 80%
    02:00 +21°C° 0,1 mm 3 m/s 757 mmHg 79%
    03:00 +21°C° 0,1 mm 2 m/s 756 mmHg 78%
    04:00 +21°C° 0,1 mm 2 m/s 756 mmHg 77%
    05:00 +21°C° 0 mm 2 m/s 756 mmHg 77%
    06:00 +22°C° 0 mm 1 m/s 756 mmHg 76%
    07:00 +22°C° 0 mm 1 m/s 756 mmHg 76%
    08:00 +24°C° 0 mm 1 m/s 757 mmHg 68%
    09:00 +26°C° 0 mm 1 m/s 757 mmHg 61%
    10:00 +28°C° 0 mm 1 m/s 757 mmHg 53%
    11:00 +29°C° 0 mm 2 m/s 757 mmHg 49%
    12:00 +30°C° 0 mm 3 m/s 756 mmHg 46%
    13:00 +31°C° 0 mm 3 m/s 755 mmHg 42%
    14:00 +29°C° 0 mm 4 m/s 754 mmHg 48%
    15:00 +28°C° 0 mm 5 m/s 754 mmHg 53%
    16:00 +27°C° 0 mm 6 m/s 753 mmHg 59%
    17:00 +25°C° 0 mm 5 m/s 754 mmHg 65%
    18:00 +23°C° 0 mm 4 m/s 754 mmHg 71%
    19:00 +21°C° 0 mm 4 m/s 755 mmHg 77%
    20:00 +21°C° 0 mm 4 m/s 755 mmHg 80%
    21:00 +21°C° 0 mm 3 m/s 756 mmHg 83%
    22:00 +20°C° 0 mm 3 m/s 757 mmHg 86%
    23:00 +20°C° 0 mm 2 m/s 756 mmHg 86%

    Poimâine, 27 Iulie, Joi

    Timp Temperatura Precipitaţii Vânt Presiune Umiditate
    00:00 +20°C° 0 mm 2 m/s 756 mmHg 86%
    01:00 +21°C° 0 mm 1 m/s 756 mmHg 86%
    02:00 +21°C° 0 mm 1 m/s 756 mmHg 84%
    03:00 +21°C° 0 mm 1 m/s 756 mmHg 83%
    04:00 +21°C° 0 mm 1 m/s 755 mmHg 82%
    05:00 +20°C° 0 mm 0 m/s 756 mmHg 80%
    06:00 +20°C° 0 mm 0 m/s 756 mmHg 78%
    07:00 +20°C° 0 mm 0 m/s 757 mmHg 76%
    08:00 +21°C° 0 mm 0 m/s 757 mmHg 70%
    09:00 +25°C° 0 mm 1 m/s 757 mmHg 64%
    10:00 +26°C° 0 mm 1 m/s 757 mmHg 58%
    11:00 +27°C° 0 mm 2 m/s 756 mmHg 53%
    12:00 +29°C° 0 mm 3 m/s 756 mmHg 47%
    13:00 +30°C° 0 mm 3 m/s 755 mmHg 42%
    14:00 +29°C° 0 mm 4 m/s 754 mmHg 47%
    15:00 +28°C° 0 mm 5 m/s 754 mmHg 52%
    16:00 +27°C° 0 mm 5 m/s 753 mmHg 58%
    17:00 +25°C° 0 mm 5 m/s 754 mmHg 64%
    18:00 +23°C° 0 mm 4 m/s 754 mmHg 71%
    19:00 +21°C° 0 mm 4 m/s 755 mmHg 77%
    20:00 +21°C° 0 mm 3 m/s 756 mmHg 80%
    21:00 +21°C° 0 mm 3 m/s 756 mmHg 83%
    22:00 +20°C° 0 mm 2 m/s 757 mmHg 86%
    23:00 +20°C° 0 mm 2 m/s 757 mmHg 88%

    28 Iulie, Vineri

    Timp Temperatura Precipitaţii Vânt Presiune Umiditate
    00:00 +21°C° 0 mm 1 m/s 756 mmHg 89%
    01:00 +20°C° 0 mm 1 m/s 756 mmHg 91%
    02:00 +20°C° 0 mm 1 m/s 756 mmHg 92%
    03:00 +20°C° 0 mm 1 m/s 756 mmHg 92%
    04:00 +20°C° 0 mm 1 m/s 756 mmHg 93%
    05:00 +20°C° 0 mm 1 m/s 756 mmHg 93%
    06:00 +20°C° 0 mm 1 m/s 756 mmHg 92%
    07:00 +20°C° 0 mm 1 m/s 756 mmHg 92%
    08:00 +23°C° 0 mm 1 m/s 757 mmHg 79%
    09:00 +23°C° 0 mm 0 m/s 757 mmHg 66%
    10:00 +26°C° 0 mm 0 m/s 757 mmHg 53%
    11:00 +29°C° 0 mm 1 m/s 756 mmHg 49%
    12:00 +30°C° 0 mm 2 m/s 755 mmHg 44%
    13:00 +31°C° 0 mm 3 m/s 754 mmHg 40%
    14:00 +30°C° 0 mm 4 m/s 754 mmHg 46%
    15:00 +29°C° 0 mm 4 m/s 753 mmHg 52%
    16:00 +27°C° 0 mm 5 m/s 753 mmHg 58%
    17:00 +26°C° 0 mm 5 m/s 754 mmHg 64%
    18:00 +23°C° 0 mm 5 m/s 754 mmHg 71%
    19:00 +22°C° 0 mm 4 m/s 755 mmHg 77%
    20:00 +21°C° 0 mm 4 m/s 755 mmHg 80%
    21:00 +21°C° 0 mm 3 m/s 756 mmHg 82%
    22:00 +21°C° 0 mm 2 m/s 756 mmHg 85%
    23:00 +20°C° 0 mm 2 m/s 756 mmHg 87%

    29 Iulie, Sâmbătă

    Timp Temperatura Precipitaţii Vânt Presiune Umiditate
    00:00 +21°C° 0 mm 1 m/s 756 mmHg 89%
    01:00 +21°C° 0 mm 1 m/s 756 mmHg 90%
    02:00 +21°C° 0 mm 1 m/s 756 mmHg 91%
    03:00 +20°C° 0 mm 1 m/s 756 mmHg 93%
    04:00 +18°C° 0 mm 0 m/s 755 mmHg 94%
    05:00 +20°C° 0 mm 1 m/s 756 mmHg 93%
    06:00 +20°C° 0 mm 1 m/s 756 mmHg 92%
    07:00 +20°C° 0 mm 1 m/s 757 mmHg 92%
    08:00 +23°C° 0 mm 1 m/s 757 mmHg 79%
    09:00 +25°C° 0 mm 1 m/s 757 mmHg 67%
    10:00 +27°C° 0 mm 1 m/s 757 mmHg 55%
    11:00 +29°C° 0 mm 2 m/s 756 mmHg 51%
    12:00 +30°C° 0 mm 3 m/s 755 mmHg 47%
    13:00 +32°C° 0 mm 4 m/s 754 mmHg 42%
    14:00 +30°C° 0 mm 4 m/s 754 mmHg 46%
    15:00 +29°C° 0 mm 4 m/s 753 mmHg 50%
    16:00 +28°C° 0 mm 5 m/s 753 mmHg 55%
    17:00 +26°C° 0 mm 5 m/s 753 mmHg 63%
    18:00 +25°C° 0 mm 5 m/s 754 mmHg 71%
    19:00 +22°C° 0 mm 5 m/s 755 mmHg 79%
    20:00 +21°C° 0 mm 4 m/s 755 mmHg 82%
    21:00 +21°C° 0 mm 2 m/s 756 mmHg 85%
    22:00 +22°C° 0 mm 1 m/s 757 mmHg 88%
    23:00 +22°C° 0 mm 1 m/s 757 mmHg 89%

    30 Iulie, Duminică

    Timp Temperatura Precipitaţii Vânt Presiune Umiditate
    00:00 +19°C° 0 mm 0 m/s 757 mmHg 90%
    01:00 +19°C° 0 mm 0 m/s 756 mmHg 91%
    02:00 +19°C° 0 mm 0 m/s 756 mmHg 90%
    03:00 +19°C° 0 mm 0 m/s 756 mmHg 89%
    04:00 +20°C° 0 mm 0 m/s 756 mmHg 87%
    05:00 +20°C° 0 mm 0 m/s 756 mmHg 85%
    06:00 +20°C° 0 mm 0 m/s 756 mmHg 84%
    07:00 +22°C° 0 mm 1 m/s 757 mmHg 82%
    08:00 +23°C° 0 mm 1 m/s 757 mmHg 76%
    09:00 +24°C° 0 mm 1 m/s 757 mmHg 70%
    10:00 +25°C° 0 mm 1 m/s 757 mmHg 64%
    11:00 +27°C° 0 mm 2 m/s 756 mmHg 58%
    12:00 +29°C° 0 mm 3 m/s 756 mmHg 51%
    13:00 +30°C° 0 mm 3 m/s 755 mmHg 45%
    14:00 +29°C° 0 mm 4 m/s 754 mmHg 49%
    15:00 +29°C° 0 mm 4 m/s 754 mmHg 52%
    16:00 +28°C° 0 mm 5 m/s 753 mmHg 56%
    17:00 +26°C° 0 mm 4 m/s 754 mmHg 64%
    18:00 +23°C° 0 mm 4 m/s 754 mmHg 71%
    19:00 +22°C° 0 mm 4 m/s 755 mmHg 79%
    20:00 +21°C° 0 mm 3 m/s 756 mmHg 82%
    21:00 +21°C° 0 mm 3 m/s 756 mmHg 85%
    22:00 +21°C° 0 mm 2 m/s 757 mmHg 89%
    23:00 +20°C° 0 mm 2 m/s 757 mmHg 89%
    Arată mai mult